Time,TemperatureF,DewpointF,PressureIn,WindDirection,WindDirectionDegrees,WindSpeedMPH,WindSpeedGustMPH,Humidity,HourlyPrecipIn,Conditions,Clouds,dailyrainin,SoftwareType,DateUTC
2013-02-20 00:00:00,12.9,5.0,30.30,South,178,12.3,13.5,72,0.00,,,0.00,TxWx,2013-02-20 06:00:00,
2013-02-20 00:05:00,13.0,5.0,30.30,South,175,11.1,11.1,72,0.00,,,0.00,TxWx,2013-02-20 06:05:00,
2013-02-20 00:10:00,12.9,5.0,30.30,South,174,11.7,11.7,73,0.00,,,0.00,TxWx,2013-02-20 06:10:00,
2013-02-20 00:15:00,12.9,5.0,30.30,South,175,13.8,14.4,72,0.00,,,0.00,TxWx,2013-02-20 06:15:00,
2013-02-20 00:20:00,12.7,5.0,30.30,South,174,13.5,16.2,73,0.00,,,0.00,TxWx,2013-02-20 06:20:00,
2013-02-20 00:25:00,12.8,5.0,30.31,South,171,9.3,9.6,73,0.00,,,0.00,TxWx,2013-02-20 06:25:00,
2013-02-20 00:31:00,12.5,5.0,30.31,South,174,12.3,12.9,74,0.00,,,0.00,TxWx,2013-02-20 06:31:00,
2013-02-20 00:36:00,12.7,5.0,30.31,South,175,12.6,12.6,75,0.00,,,0.00,TxWx,2013-02-20 06:36:00,
2013-02-20 00:41:00,12.6,5.0,30.32,South,171,13.5,13.5,74,0.00,,,0.00,TxWx,2013-02-20 06:41:00,
2013-02-20 00:46:00,12.5,5.0,30.32,SE,146,10.2,14.4,74,0.00,,,0.00,TxWx,2013-02-20 06:46:00,
2013-02-20 00:51:00,12.6,5.0,30.32,SSE,166,13.2,13.2,74,0.00,,,0.00,TxWx,2013-02-20 06:51:00,
2013-02-20 00:56:00,12.4,4.0,30.32,South,169,10.8,10.8,75,0.00,,,0.00,TxWx,2013-02-20 06:56:00,
2013-02-20 01:01:00,12.3,5.0,30.32,South,171,12.9,14.1,76,0.00,,,0.00,TxWx,2013-02-20 07:01:00,
2013-02-20 01:07:00,12.3,5.0,30.33,South,169,10.2,10.5,77,0.00,,,0.00,TxWx,2013-02-20 07:07:00,
2013-02-20 01:12:00,12.1,4.0,30.33,SSE,161,10.5,11.7,75,0.00,,,0.00,TxWx,2013-02-20 07:12:00,
2013-02-20 01:17:00,12.0,5.0,30.33,SSE,164,14.7,15.3,75,0.00,,,0.00,TxWx,2013-02-20 07:17:00,
2013-02-20 01:22:00,11.8,5.0,30.33,SSE,160,10.5,10.8,76,0.00,,,0.00,TxWx,2013-02-20 07:22:00,
2013-02-20 01:28:00,11.9,5.0,30.33,South,173,12.6,12.6,76,0.00,,,0.00,TxWx,2013-02-20 07:28:00,
2013-02-20 01:33:00,12.0,5.0,30.33,SSE,168,6.6,6.6,75,0.00,,,0.00,TxWx,2013-02-20 07:33:00,
2013-02-20 01:38:00,12.0,4.0,30.33,South,182,4.2,4.2,74,0.00,,,0.00,TxWx,2013-02-20 07:38:00,
2013-02-20 01:43:00,12.0,4.0,30.33,South,174,7.8,9.0,74,0.00,,,0.00,TxWx,2013-02-20 07:43:00,
2013-02-20 01:48:00,12.0,4.0,30.34,South,173,7.5,7.5,73,0.00,,,0.00,TxWx,2013-02-20 07:48:00,
2013-02-20 01:53:00,11.8,4.0,30.34,SSE,149,7.5,7.5,73,0.00,,,0.00,TxWx,2013-02-20 07:53:00,
2013-02-20 01:59:00,11.5,4.0,30.34,South,174,13.2,13.8,74,0.00,,,0.00,TxWx,2013-02-20 07:59:00,
2013-02-20 02:05:00,11.5,4.0,30.34,South,175,8.1,8.1,74,0.00,,,0.00,TxWx,2013-02-20 08:05:00,
2013-02-20 02:10:00,11.5,3.0,30.34,SSE,168,13.5,14.4,74,0.00,,,0.00,TxWx,2013-02-20 08:10:00,
2013-02-20 02:15:00,11.5,3.0,30.34,SSW,197,6.3,8.4,74,0.00,,,0.00,TxWx,2013-02-20 08:15:00,
2013-02-20 02:20:00,11.3,3.0,30.34,SSE,153,8.4,9.6,75,0.00,,,0.00,TxWx,2013-02-20 08:20:00,
2013-02-20 02:26:00,11.3,3.0,30.34,SSE,161,6.9,7.2,74,0.00,,,0.00,TxWx,2013-02-20 08:26:00,
2013-02-20 02:31:00,11.2,3.0,30.34,South,172,10.5,11.4,74,0.00,,,0.00,TxWx,2013-02-20 08:31:00,
2013-02-20 02:36:00,11.2,3.0,30.34,South,172,14.7,15.0,75,0.00,,,0.00,TxWx,2013-02-20 08:36:00,
2013-02-20 02:42:00,11.1,3.0,30.34,South,170,13.5,14.7,75,0.00,,,0.00,TxWx,2013-02-20 08:42:00,
2013-02-20 02:47:00,11.2,3.0,30.35,South,172,13.2,14.1,74,0.00,,,0.00,TxWx,2013-02-20 08:47:00,
2013-02-20 02:52:00,11.1,3.0,30.35,SSE,166,10.8,10.8,74,0.00,,,0.00,TxWx,2013-02-20 08:52:00,
2013-02-20 02:57:00,11.1,3.0,30.35,South,174,14.1,14.7,74,0.00,,,0.00,TxWx,2013-02-20 08:57:00,
2013-02-20 03:02:00,11.1,3.0,30.35,SSE,160,7.5,8.4,74,0.00,,,0.00,TxWx,2013-02-20 09:02:00,
2013-02-20 03:08:00,11.0,3.0,30.35,South,172,14.7,15.9,74,0.00,,,0.00,TxWx,2013-02-20 09:08:00,
2013-02-20 03:13:00,11.1,3.0,30.35,South,176,7.8,7.8,74,0.00,,,0.00,TxWx,2013-02-20 09:13:00,
2013-02-20 03:18:00,11.0,3.0,30.35,South,177,7.5,7.5,74,0.00,,,0.00,TxWx,2013-02-20 09:18:00,
2013-02-20 03:23:00,11.0,3.0,30.35,South,171,13.5,13.5,73,0.00,,,0.00,TxWx,2013-02-20 09:23:00,
2013-02-20 03:28:00,10.9,3.0,30.36,South,173,5.1,5.1,73,0.00,,,0.00,TxWx,2013-02-20 09:28:00,
2013-02-20 03:33:00,10.9,3.0,30.36,South,190,6.9,8.4,74,0.00,,,0.00,TxWx,2013-02-20 09:33:00,
2013-02-20 03:39:00,10.9,3.0,30.36,South,171,8.4,8.4,74,0.00,,,0.00,TxWx,2013-02-20 09:39:00,
2013-02-20 03:44:00,10.9,3.0,30.36,South,172,10.2,10.2,73,0.00,,,0.00,TxWx,2013-02-20 09:44:00,
2013-02-20 03:49:00,10.8,3.0,30.36,South,169,12.3,12.3,72,0.00,,,0.00,TxWx,2013-02-20 09:49:00,
2013-02-20 03:54:00,10.8,3.0,30.37,South,169,12.9,12.9,72,0.00,,,0.00,TxWx,2013-02-20 09:54:00,
2013-02-20 04:00:00,10.8,3.0,30.37,South,171,9.6,10.5,72,0.00,,,0.00,TxWx,2013-02-20 10:00:00,
2013-02-20 04:05:00,10.9,3.0,30.37,South,181,6.3,7.2,73,0.00,,,0.00,TxWx,2013-02-20 10:05:00,
2013-02-20 04:10:00,10.9,3.0,30.37,SSE,168,7.5,7.5,72,0.00,,,0.00,TxWx,2013-02-20 10:10:00,
2013-02-20 04:15:00,10.8,3.0,30.38,South,171,13.2,13.2,72,0.00,,,0.00,TxWx,2013-02-20 10:15:00,
2013-02-20 04:20:00,10.9,2.0,30.38,South,171,8.1,8.1,71,0.00,,,0.00,TxWx,2013-02-20 10:20:00,
2013-02-20 04:26:00,10.9,2.0,30.38,SSE,165,12.6,13.8,71,0.00,,,0.00,TxWx,2013-02-20 10:26:00,
2013-02-20 04:31:00,10.8,2.0,30.38,SSE,166,5.4,5.4,70,0.00,,,0.00,TxWx,2013-02-20 10:31:00,
2013-02-20 04:36:00,10.8,2.0,30.38,SSE,167,7.8,8.1,70,0.00,,,0.00,TxWx,2013-02-20 10:36:00,
2013-02-20 04:41:00,10.7,2.0,30.39,South,170,12.3,13.8,71,0.00,,,0.00,TxWx,2013-02-20 10:41:00,
2013-02-20 04:46:00,10.7,2.0,30.38,South,185,9.9,9.9,71,0.00,,,0.00,TxWx,2013-02-20 10:46:00,
2013-02-20 04:51:00,10.6,2.0,30.39,South,172,7.8,8.1,71,0.00,,,0.00,TxWx,2013-02-20 10:51:00,
2013-02-20 04:56:00,10.5,2.0,30.39,South,181,8.7,8.7,70,0.00,,,0.00,TxWx,2013-02-20 10:56:00,
2013-02-20 05:01:00,10.5,2.0,30.39,South,187,9.9,10.5,71,0.00,,,0.00,TxWx,2013-02-20 11:01:00,
2013-02-20 05:07:00,10.5,1.0,30.39,South,176,8.4,9.9,71,0.00,,,0.00,TxWx,2013-02-20 11:07:00,
2013-02-20 05:12:00,10.6,2.0,30.39,South,187,9.3,9.3,71,0.00,,,0.00,TxWx,2013-02-20 11:12:00,
2013-02-20 05:17:00,10.6,2.0,30.39,South,176,9.6,9.9,71,0.00,,,0.00,TxWx,2013-02-20 11:17:00,
2013-02-20 05:22:00,10.5,2.0,30.39,South,180,10.5,11.4,71,0.00,,,0.00,TxWx,2013-02-20 11:22:00,
2013-02-20 05:27:00,10.5,2.0,30.39,SSE,163,6.0,6.0,70,0.00,,,0.00,TxWx,2013-02-20 11:27:00,
2013-02-20 05:32:00,10.4,1.0,30.39,South,177,7.2,7.8,70,0.00,,,0.00,TxWx,2013-02-20 11:32:00,
2013-02-20 05:37:00,10.3,1.0,30.39,South,178,9.0,9.3,70,0.00,,,0.00,TxWx,2013-02-20 11:37:00,
2013-02-20 05:43:00,10.3,1.0,30.39,South,178,11.4,12.0,70,0.00,,,0.00,TxWx,2013-02-20 11:43:00,
2013-02-20 05:48:00,10.2,1.0,30.39,South,186,14.1,14.1,71,0.00,,,0.00,TxWx,2013-02-20 11:48:00,
2013-02-20 05:53:00,10.3,1.0,30.39,South,180,12.0,12.0,71,0.00,,,0.00,TxWx,2013-02-20 11:53:00,
2013-02-20 05:59:00,10.3,1.0,30.39,South,170,5.1,5.1,71,0.00,,,0.00,TxWx,2013-02-20 11:59:00,
2013-02-20 06:04:00,10.2,1.0,30.39,South,170,7.8,7.8,71,0.00,,,0.00,TxWx,2013-02-20 12:04:00,
2013-02-20 06:09:00,10.2,2.0,30.39,South,174,6.3,6.3,72,0.00,,,0.00,TxWx,2013-02-20 12:09:00,
2013-02-20 06:14:00,10.2,2.0,30.39,SSE,168,7.2,7.2,72,0.00,,,0.00,TxWx,2013-02-20 12:14:00,
2013-02-20 06:19:00,10.1,2.0,30.39,South,174,9.6,9.6,72,0.00,,,0.00,TxWx,2013-02-20 12:19:00,
2013-02-20 06:24:00,10.1,1.0,30.40,South,173,4.2,5.1,71,0.00,,,0.00,TxWx,2013-02-20 12:24:00,
2013-02-20 06:29:00,10.1,2.0,30.39,South,178,7.2,7.2,72,0.00,,,0.00,TxWx,2013-02-20 12:29:00,
2013-02-20 06:35:00,10.0,2.0,30.40,SSE,165,10.8,11.4,72,0.00,,,0.00,TxWx,2013-02-20 12:35:00,
2013-02-20 06:40:00,10.1,2.0,30.39,SSE,167,6.3,6.3,72,0.00,,,0.00,TxWx,2013-02-20 12:40:00,
2013-02-20 06:45:00,10.1,2.0,30.40,SSE,168,7.8,7.8,72,0.00,,,0.00,TxWx,2013-02-20 12:45:00,
2013-02-20 06:50:00,10.1,2.0,30.40,SSE,163,6.0,6.0,72,0.00,,,0.00,TxWx,2013-02-20 12:50:00,
2013-02-20 06:55:00,10.1,2.0,30.40,South,172,7.8,8.4,72,0.00,,,0.00,TxWx,2013-02-20 12:55:00,
2013-02-20 07:00:00,10.1,2.0,30.41,South,174,13.2,13.2,72,0.00,,,0.00,TxWx,2013-02-20 13:00:00,
2013-02-20 07:06:00,10.1,2.0,30.41,SSE,159,6.3,8.1,72,0.00,,,0.00,TxWx,2013-02-20 13:06:00,
2013-02-20 07:11:00,10.2,1.0,30.42,SSE,164,7.8,7.8,71,0.00,,,0.00,TxWx,2013-02-20 13:11:00,
2013-02-20 07:16:00,10.3,2.0,30.42,South,173,9.9,10.5,72,0.00,,,0.00,TxWx,2013-02-20 13:16:00,
2013-02-20 07:21:00,10.3,2.0,30.42,South,177,6.3,6.6,72,0.00,,,0.00,TxWx,2013-02-20 13:21:00,
2013-02-20 07:27:00,10.4,2.0,30.42,South,179,9.9,10.2,72,0.00,,,0.00,TxWx,2013-02-20 13:27:00,
2013-02-20 07:32:00,10.5,2.0,30.42,South,178,10.8,10.8,73,0.00,,,0.00,TxWx,2013-02-20 13:32:00,
2013-02-20 07:37:00,10.5,3.0,30.42,South,180,11.7,11.7,73,0.00,,,0.00,TxWx,2013-02-20 13:37:00,
2013-02-20 07:42:00,10.7,3.0,30.42,South,177,9.9,11.4,72,0.00,,,0.00,TxWx,2013-02-20 13:42:00,
2013-02-20 07:47:00,10.8,3.0,30.42,South,181,9.0,9.9,72,0.00,,,0.00,TxWx,2013-02-20 13:47:00,
2013-02-20 07:52:00,11.0,3.0,30.42,SSE,164,5.1,5.7,73,0.00,,,0.00,TxWx,2013-02-20 13:52:00,
2013-02-20 07:58:00,11.3,3.0,30.42,South,178,7.8,9.3,74,0.00,,,0.00,TxWx,2013-02-20 13:58:00,
2013-02-20 08:03:00,11.0,3.0,30.42,South,180,10.8,10.8,74,0.00,,,0.00,TxWx,2013-02-20 14:03:00,
2013-02-20 08:08:00,11.0,3.0,30.42,SSE,168,9.3,9.6,74,0.00,,,0.00,TxWx,2013-02-20 14:08:00,
2013-02-20 08:13:00,11.4,3.0,30.42,South,174,8.4,8.4,74,0.00,,,0.00,TxWx,2013-02-20 14:13:00,
2013-02-20 08:18:00,11.2,3.0,30.42,South,170,9.9,11.1,75,0.00,,,0.00,TxWx,2013-02-20 14:18:00,
2013-02-20 08:24:00,11.9,4.0,30.42,SSE,159,6.6,7.8,74,0.00,,,0.00,TxWx,2013-02-20 14:24:00,
2013-02-20 08:29:00,12.1,4.0,30.42,South,184,8.7,9.9,75,0.00,,,0.00,TxWx,2013-02-20 14:29:00,
2013-02-20 08:34:00,11.9,4.0,30.43,SSE,166,8.1,8.7,73,0.00,,,0.00,TxWx,2013-02-20 14:34:00,
2013-02-20 08:40:00,12.1,4.0,30.43,South,169,6.9,7.2,74,0.00,,,0.00,TxWx,2013-02-20 14:40:00,
2013-02-20 08:45:00,12.6,5.0,30.43,South,171,10.2,10.2,73,0.00,,,0.00,TxWx,2013-02-20 14:45:00,
2013-02-20 08:50:00,12.8,5.0,30.43,South,182,7.5,7.5,73,0.00,,,0.00,TxWx,2013-02-20 14:50:00,
2013-02-20 08:55:00,12.7,5.0,30.43,South,189,12.0,12.0,72,0.00,,,0.00,TxWx,2013-02-20 14:55:00,
2013-02-20 09:00:00,13.2,5.0,30.43,South,185,8.7,8.7,74,0.00,,,0.00,TxWx,2013-02-20 15:00:00,
2013-02-20 09:05:00,13.1,5.0,30.43,South,170,11.4,11.4,73,0.00,,,0.00,TxWx,2013-02-20 15:05:00,
2013-02-20 09:10:00,13.1,5.0,30.43,South,169,9.9,9.9,73,0.00,,,0.00,TxWx,2013-02-20 15:10:00,
2013-02-20 09:16:00,13.7,6.0,30.44,South,172,11.1,11.7,75,0.00,,,0.00,TxWx,2013-02-20 15:16:00,
2013-02-20 09:21:00,14.0,7.0,30.44,South,174,7.5,9.0,75,0.00,,,0.00,TxWx,2013-02-20 15:21:00,
2013-02-20 09:26:00,13.6,6.0,30.44,South,172,6.3,7.2,74,0.00,,,0.00,TxWx,2013-02-20 15:26:00,
2013-02-20 09:31:00,13.7,6.0,30.44,SSE,167,8.1,8.1,74,0.00,,,0.00,TxWx,2013-02-20 15:31:00,
2013-02-20 09:36:00,13.6,5.0,30.45,South,176,11.4,11.4,72,0.00,,,0.00,TxWx,2013-02-20 15:36:00,
2013-02-20 09:41:00,14.1,6.0,30.44,South,190,11.1,11.1,73,0.00,,,0.00,TxWx,2013-02-20 15:41:00,
2013-02-20 09:47:00,14.0,6.0,30.45,South,175,9.0,9.0,74,0.00,,,0.00,TxWx,2013-02-20 15:47:00,
2013-02-20 09:52:00,14.3,5.0,30.45,South,177,12.0,12.3,71,0.00,,,0.00,TxWx,2013-02-20 15:52:00,
2013-02-20 09:57:00,14.2,5.0,30.45,South,189,9.3,9.3,70,0.00,,,0.00,TxWx,2013-02-20 15:57:00,
2013-02-20 10:02:00,14.9,7.0,30.45,SSE,156,11.1,11.1,72,0.00,,,0.00,TxWx,2013-02-20 16:02:00,
2013-02-20 10:07:00,15.0,6.0,30.45,SSE,166,7.2,8.1,69,0.00,,,0.00,TxWx,2013-02-20 16:07:00,
2013-02-20 10:12:00,15.3,4.0,30.45,SSW,195,7.8,7.8,65,0.00,,,0.00,TxWx,2013-02-20 16:12:00,
2013-02-20 10:17:00,15.4,3.0,30.45,South,189,6.0,6.0,62,0.00,,,0.00,TxWx,2013-02-20 16:17:00,
2013-02-20 10:22:00,15.5,5.0,30.46,South,184,9.6,9.6,65,0.00,,,0.00,TxWx,2013-02-20 16:22:00,
2013-02-20 10:28:00,15.8,5.0,30.46,SSE,164,3.3,3.3,65,0.00,,,0.00,TxWx,2013-02-20 16:28:00,
2013-02-20 10:33:00,16.1,5.0,30.46,SSW,194,11.1,11.7,63,0.00,,,0.00,TxWx,2013-02-20 16:33:00,
2013-02-20 10:38:00,16.0,5.0,30.46,South,190,12.3,12.3,63,0.00,,,0.00,TxWx,2013-02-20 16:38:00,
2013-02-20 10:43:00,16.9,5.0,30.46,South,183,6.6,6.9,61,0.00,,,0.00,TxWx,2013-02-20 16:43:00,
2013-02-20 10:48:00,17.2,5.0,30.46,South,176,7.8,7.8,62,0.00,,,0.00,TxWx,2013-02-20 16:48:00,
2013-02-20 10:53:00,17.0,4.0,30.46,SSW,195,8.4,9.6,60,0.00,,,0.00,TxWx,2013-02-20 16:53:00,
2013-02-20 10:58:00,17.2,5.0,30.46,SSW,194,9.3,9.3,60,0.00,,,0.00,TxWx,2013-02-20 16:58:00,
2013-02-20 11:03:00,17.5,4.0,30.46,SSE,152,3.0,3.9,60,0.00,,,0.00,TxWx,2013-02-20 17:03:00,
2013-02-20 11:09:00,18.2,5.0,30.46,South,169,7.8,8.4,60,0.00,,,0.00,TxWx,2013-02-20 17:09:00,
2013-02-20 11:14:00,17.9,5.0,30.46,SSW,193,5.4,5.4,59,0.00,,,0.00,TxWx,2013-02-20 17:14:00,
2013-02-20 11:19:00,18.3,6.0,30.46,South,181,7.2,7.2,61,0.00,,,0.00,TxWx,2013-02-20 17:19:00,
2013-02-20 11:24:00,18.3,6.0,30.46,SSW,200,4.8,5.1,62,0.00,,,0.00,TxWx,2013-02-20 17:24:00,
2013-02-20 11:29:00,18.5,6.0,30.45,SSW,209,4.8,5.1,60,0.00,,,0.00,TxWx,2013-02-20 17:29:00,
2013-02-20 11:34:00,18.7,7.0,30.45,SW,224,7.2,8.7,63,0.00,,,0.00,TxWx,2013-02-20 17:34:00,
2013-02-20 11:40:00,18.6,7.0,30.45,SW,226,6.9,8.1,62,0.00,,,0.00,TxWx,2013-02-20 17:40:00,
2013-02-20 11:45:00,18.5,7.0,30.45,SW,230,7.8,8.7,63,0.00,,,0.00,TxWx,2013-02-20 17:45:00,
2013-02-20 11:50:00,18.6,6.0,30.44,South,187,4.8,5.7,60,0.00,,,0.00,TxWx,2013-02-20 17:50:00,
2013-02-20 11:55:00,19.1,7.0,30.44,SW,221,11.4,12.0,61,0.00,,,0.00,TxWx,2013-02-20 17:55:00,
2013-02-20 12:00:00,18.9,7.0,30.44,SSW,212,10.8,12.0,62,0.00,,,0.00,TxWx,2013-02-20 18:00:00,
2013-02-20 12:05:00,19.3,7.0,30.44,SSW,197,9.3,11.1,61,0.00,,,0.00,TxWx,2013-02-20 18:05:00,
2013-02-20 12:10:00,19.2,7.0,30.44,South,185,6.3,8.4,62,0.00,,,0.00,TxWx,2013-02-20 18:10:00,
2013-02-20 12:15:00,19.0,7.0,30.44,SW,214,10.8,11.1,61,0.00,,,0.00,TxWx,2013-02-20 18:15:00,
2013-02-20 12:20:00,19.2,7.0,30.44,SSW,208,12.9,12.9,63,0.00,,,0.00,TxWx,2013-02-20 18:20:00,
2013-02-20 12:26:00,18.8,7.0,30.44,South,191,11.1,11.1,61,0.00,,,0.00,TxWx,2013-02-20 18:26:00,
2013-02-20 12:31:00,19.8,9.0,30.44,SSW,195,5.7,5.7,64,0.00,,,0.00,TxWx,2013-02-20 18:31:00,
2013-02-20 12:36:00,19.2,7.0,30.45,SW,218,10.8,13.2,62,0.00,,,0.00,TxWx,2013-02-20 18:36:00,
2013-02-20 12:41:00,19.6,8.0,30.45,SSW,206,8.1,8.1,61,0.00,,,0.00,TxWx,2013-02-20 18:41:00,
2013-02-20 12:46:00,19.6,8.0,30.46,SSW,202,3.3,3.6,61,0.00,,,0.00,TxWx,2013-02-20 18:46:00,
2013-02-20 12:52:00,20.1,8.0,30.46,SSW,212,7.5,7.5,62,0.00,,,0.00,TxWx,2013-02-20 18:52:00,
2013-02-20 12:57:00,20.1,8.0,30.46,SSW,207,3.0,3.0,62,0.00,,,0.00,TxWx,2013-02-20 18:57:00,
2013-02-20 13:02:00,20.6,9.0,30.46,SSW,201,6.9,7.8,62,0.00,,,0.00,TxWx,2013-02-20 19:02:00,
2013-02-20 13:07:00,20.5,8.0,30.46,SSW,199,1.8,1.8,62,0.00,,,0.00,TxWx,2013-02-20 19:07:00,
2013-02-20 13:12:00,20.7,8.0,30.47,SSW,195,10.2,10.2,60,0.00,,,0.00,TxWx,2013-02-20 19:12:00,
2013-02-20 13:17:00,20.5,8.0,30.47,SSW,195,4.5,4.5,60,0.00,,,0.00,TxWx,2013-02-20 19:17:00,
2013-02-20 13:22:00,21.0,8.0,30.48,South,188,12.9,12.9,60,0.00,,,0.00,TxWx,2013-02-20 19:22:00,
2013-02-20 13:27:00,21.1,8.0,30.48,SSW,200,5.4,5.7,60,0.00,,,0.00,TxWx,2013-02-20 19:27:00,
2013-02-20 13:33:00,21.5,8.0,30.48,South,183,7.5,7.5,59,0.00,,,0.00,TxWx,2013-02-20 19:33:00,
2013-02-20 13:38:00,21.5,8.0,30.47,SW,214,7.5,7.5,58,0.00,,,0.00,TxWx,2013-02-20 19:38:00,
2013-02-20 13:43:00,21.6,8.0,30.48,SSW,196,6.3,6.6,58,0.00,,,0.00,TxWx,2013-02-20 19:43:00,
2013-02-20 13:48:00,22.0,8.0,30.47,South,170,0.9,1.2,58,0.00,,,0.00,TxWx,2013-02-20 19:48:00,
2013-02-20 13:54:00,22.3,9.0,30.47,South,182,1.8,1.8,59,0.00,,,0.00,TxWx,2013-02-20 19:54:00,
2013-02-20 13:59:00,22.2,8.0,30.47,SSW,203,5.7,5.7,58,0.00,,,0.00,TxWx,2013-02-20 19:59:00,
2013-02-20 14:04:00,22.4,8.0,30.47,SW,217,3.0,3.3,57,0.00,,,0.00,TxWx,2013-02-20 20:04:00,
2013-02-20 14:09:00,23.0,9.0,30.47,SSW,209,3.6,4.5,57,0.00,,,0.00,TxWx,2013-02-20 20:09:00,
2013-02-20 14:14:00,23.1,8.0,30.46,SSW,205,7.2,8.1,56,0.00,,,0.00,TxWx,2013-02-20 20:14:00,
2013-02-20 14:19:00,23.2,9.0,30.46,SSW,207,8.1,9.3,58,0.00,,,0.00,TxWx,2013-02-20 20:19:00,
2013-02-20 14:24:00,23.7,10.0,30.46,SSW,210,7.2,7.2,56,0.00,,,0.00,TxWx,2013-02-20 20:24:00,
2013-02-20 14:29:00,23.5,9.0,30.46,SSW,208,6.0,6.0,55,0.00,,,0.00,TxWx,2013-02-20 20:29:00,
2013-02-20 14:35:00,23.8,10.0,30.45,NE,55,6.3,6.3,56,0.00,,,0.00,TxWx,2013-02-20 20:35:00,
2013-02-20 14:40:00,24.1,8.0,30.46,SSW,208,9.0,9.0,53,0.00,,,0.00,TxWx,2013-02-20 20:40:00,
2013-02-20 14:45:00,23.7,10.0,30.45,SW,225,6.0,6.0,57,0.00,,,0.00,TxWx,2013-02-20 20:45:00,
2013-02-20 14:50:00,23.6,10.0,30.45,SW,215,10.5,10.5,57,0.00,,,0.00,TxWx,2013-02-20 20:50:00,
2013-02-20 14:56:00,23.7,11.0,30.45,SSW,208,9.0,9.0,59,0.00,,,0.00,TxWx,2013-02-20 20:56:00,
2013-02-20 15:01:00,23.7,11.0,30.45,SW,220,9.0,9.6,60,0.00,,,0.00,TxWx,2013-02-20 21:01:00,
2013-02-20 15:06:00,23.5,11.0,30.45,SW,220,9.9,11.1,60,0.00,,,0.00,TxWx,2013-02-20 21:06:00,
2013-02-20 15:11:00,23.3,10.0,30.45,SSW,212,11.7,11.7,59,0.00,,,0.00,TxWx,2013-02-20 21:11:00,
2013-02-20 15:16:00,23.1,10.0,30.45,SW,219,12.3,12.3,60,0.00,,,0.00,TxWx,2013-02-20 21:16:00,
2013-02-20 15:21:00,23.0,10.0,30.45,SSW,208,8.4,8.7,61,0.00,,,0.00,TxWx,2013-02-20 21:21:00,
2013-02-20 15:27:00,23.1,10.0,30.45,SSW,213,6.6,6.6,60,0.00,,,0.00,TxWx,2013-02-20 21:27:00,
2013-02-20 15:32:00,23.5,11.0,30.45,SW,236,5.7,6.9,61,0.00,,,0.00,TxWx,2013-02-20 21:32:00,
2013-02-20 15:37:00,23.3,10.0,30.45,SW,224,6.3,6.3,60,0.00,,,0.00,TxWx,2013-02-20 21:37:00,
2013-02-20 15:42:00,23.0,11.0,30.45,SW,217,11.7,13.8,62,0.00,,,0.00,TxWx,2013-02-20 21:42:00,
2013-02-20 15:47:00,22.7,11.0,30.45,SW,219,13.2,13.2,62,0.00,,,0.00,TxWx,2013-02-20 21:47:00,
2013-02-20 15:52:00,22.8,11.0,30.45,SSW,212,11.1,11.1,64,0.00,,,0.00,TxWx,2013-02-20 21:52:00,
2013-02-20 15:57:00,22.4,11.0,30.45,SW,214,11.1,11.4,65,0.00,,,0.00,TxWx,2013-02-20 21:57:00,
2013-02-20 16:04:00,22.2,11.0,30.46,SW,230,7.5,8.1,66,0.00,,,0.00,TxWx,2013-02-20 22:04:00,
2013-02-20 16:09:00,22.2,12.0,30.46,SW,215,6.9,6.9,67,0.00,,,0.00,TxWx,2013-02-20 22:09:00,
2013-02-20 16:14:00,22.0,11.0,30.46,SW,226,7.5,8.4,66,0.00,,,0.00,TxWx,2013-02-20 22:14:00,
2013-02-20 16:19:00,22.0,12.0,30.46,SW,217,9.6,9.6,67,0.00,,,0.00,TxWx,2013-02-20 22:19:00,
2013-02-20 16:24:00,21.7,12.0,30.46,SW,222,5.7,5.7,67,0.00,,,0.00,TxWx,2013-02-20 22:24:00,
2013-02-20 16:30:00,21.6,12.0,30.46,SW,219,14.4,14.7,67,0.00,,,0.00,TxWx,2013-02-20 22:30:00,
2013-02-20 16:35:00,21.6,12.0,30.46,SW,220,17.1,17.1,68,0.00,,,0.00,TxWx,2013-02-20 22:35:00,
2013-02-20 16:42:00,21.4,12.0,30.46,SSW,208,5.1,6.3,70,0.00,,,0.00,TxWx,2013-02-20 22:42:00,
2013-02-20 16:47:00,21.3,12.0,30.46,SW,227,6.3,6.3,71,0.00,,,0.00,TxWx,2013-02-20 22:47:00,
2013-02-20 16:52:00,21.2,12.0,30.47,SW,230,8.1,8.1,70,0.00,,,0.00,TxWx,2013-02-20 22:52:00,
2013-02-20 16:57:00,21.1,12.0,30.47,SW,228,9.3,9.6,70,0.00,,,0.00,TxWx,2013-02-20 22:57:00,
2013-02-20 17:02:00,21.1,12.0,30.47,SW,224,12.9,12.9,71,0.00,,,0.00,TxWx,2013-02-20 23:02:00,
2013-02-20 17:07:00,21.1,12.0,30.47,SW,229,6.0,7.2,71,0.00,,,0.00,TxWx,2013-02-20 23:07:00,
2013-02-20 17:13:00,21.1,12.0,30.47,SW,226,7.2,7.2,72,0.00,,,0.00,TxWx,2013-02-20 23:13:00,
2013-02-20 17:18:00,21.0,12.0,30.47,SSW,212,8.4,9.3,72,0.00,,,0.00,TxWx,2013-02-20 23:18:00,
2013-02-20 17:23:00,21.0,13.0,30.47,SW,216,8.1,8.4,73,0.00,,,0.00,TxWx,2013-02-20 23:23:00,
2013-02-20 17:28:00,21.1,13.0,30.47,SSW,207,5.4,5.4,73,0.00,,,0.00,TxWx,2013-02-20 23:28:00,
2013-02-20 17:33:00,21.0,13.0,30.48,SW,232,4.2,4.2,74,0.00,,,0.00,TxWx,2013-02-20 23:33:00,
2013-02-20 17:38:00,21.0,13.0,30.48,SSW,211,5.7,6.0,74,0.00,,,0.00,TxWx,2013-02-20 23:38:00,
2013-02-20 17:44:00,21.1,13.0,30.48,SW,214,5.4,5.7,74,0.00,,,0.00,TxWx,2013-02-20 23:44:00,
2013-02-20 17:49:00,21.0,13.0,30.48,SW,221,7.2,7.2,74,0.00,,,0.00,TxWx,2013-02-20 23:49:00,
2013-02-20 17:54:00,21.1,13.0,30.48,SW,217,4.2,4.2,75,0.00,,,0.00,TxWx,2013-02-20 23:54:00,
2013-02-20 17:59:00,21.3,13.0,30.48,SSW,213,9.0,9.0,74,0.00,,,0.00,TxWx,2013-02-20 23:59:00,
2013-02-20 18:04:00,21.5,14.0,30.48,SW,218,6.6,6.6,74,0.00,,,0.00,TxWx,2013-02-21 00:04:00,
2013-02-20 18:09:00,21.6,14.0,30.48,SW,217,6.6,6.6,75,0.00,,,0.00,TxWx,2013-02-21 00:09:00,
2013-02-20 18:15:00,21.8,14.0,30.48,SW,220,8.1,8.1,75,0.00,,,0.00,TxWx,2013-02-21 00:15:00,
2013-02-20 18:20:00,21.9,14.0,30.48,SW,220,3.9,4.5,75,0.00,,,0.00,TxWx,2013-02-21 00:20:00,
2013-02-20 18:25:00,21.9,14.0,30.48,SSW,204,4.8,5.7,74,0.00,,,0.00,TxWx,2013-02-21 00:25:00,
2013-02-20 18:30:00,22.1,14.0,30.48,SSW,210,6.6,6.9,74,0.00,,,0.00,TxWx,2013-02-21 00:30:00,
2013-02-20 18:35:00,22.2,14.0,30.47,SW,217,9.3,9.3,73,0.00,,,0.00,TxWx,2013-02-21 00:35:00,
2013-02-20 18:40:00,22.3,13.0,30.47,SW,221,10.8,10.8,72,0.00,,,0.00,TxWx,2013-02-21 00:40:00,
2013-02-20 18:45:00,22.5,14.0,30.47,SSW,208,5.1,5.1,73,0.00,,,0.00,TxWx,2013-02-21 00:45:00,
2013-02-20 18:50:00,22.5,14.0,30.48,SSW,209,11.7,12.9,73,0.00,,,0.00,TxWx,2013-02-21 00:50:00,
2013-02-20 18:55:00,22.5,15.0,30.48,SSW,197,4.5,5.1,74,0.00,,,0.00,TxWx,2013-02-21 00:55:00,
2013-02-20 19:00:00,22.6,15.0,30.48,SW,214,8.7,8.7,75,0.00,,,0.00,TxWx,2013-02-21 01:00:00,
2013-02-20 19:06:00,22.4,14.0,30.48,SSW,213,15.0,15.3,73,0.00,,,0.00,TxWx,2013-02-21 01:06:00,
2013-02-20 19:11:00,22.4,14.0,30.48,SSW,212,11.1,11.1,74,0.00,,,0.00,TxWx,2013-02-21 01:11:00,
2013-02-20 19:16:00,22.4,14.0,30.48,SW,215,9.3,9.3,75,0.00,,,0.00,TxWx,2013-02-21 01:16:00,
2013-02-20 19:21:00,22.4,14.0,30.48,SW,216,4.5,4.8,75,0.00,,,0.00,TxWx,2013-02-21 01:21:00,
2013-02-20 19:26:00,22.3,14.0,30.48,SSW,210,10.2,10.2,75,0.00,,,0.00,TxWx,2013-02-21 01:26:00,
2013-02-20 19:32:00,22.3,14.0,30.48,SW,220,12.0,12.0,75,0.00,,,0.00,TxWx,2013-02-21 01:32:00,
2013-02-20 19:37:00,22.3,14.0,30.48,SW,215,12.9,12.9,74,0.00,,,0.00,TxWx,2013-02-21 01:37:00,
2013-02-20 19:42:00,22.3,14.0,30.48,SSW,205,7.5,9.3,75,0.00,,,0.00,TxWx,2013-02-21 01:42:00,
2013-02-20 19:47:00,22.4,14.0,30.48,SSW,204,6.0,6.0,75,0.00,,,0.00,TxWx,2013-02-21 01:47:00,
2013-02-20 19:52:00,22.4,14.0,30.48,SW,219,8.7,8.7,74,0.00,,,0.00,TxWx,2013-02-21 01:52:00,
2013-02-20 19:57:00,22.5,14.0,30.48,SSW,207,8.4,8.4,74,0.00,,,0.00,TxWx,2013-02-21 01:57:00,
2013-02-20 20:02:00,22.6,15.0,30.48,SSW,197,4.5,5.4,76,0.00,,,0.00,TxWx,2013-02-21 02:02:00,
2013-02-20 20:07:00,22.7,15.0,30.48,SSW,203,5.1,5.1,75,0.00,,,0.00,TxWx,2013-02-21 02:07:00,
2013-02-20 20:13:00,22.8,15.0,30.48,SSW,210,3.9,3.9,76,0.00,,,0.00,TxWx,2013-02-21 02:13:00,
2013-02-20 20:18:00,22.8,16.0,30.48,SW,215,4.8,4.8,76,0.00,,,0.00,TxWx,2013-02-21 02:18:00,
2013-02-20 20:23:00,22.8,15.0,30.48,SW,220,6.6,6.6,75,0.00,,,0.00,TxWx,2013-02-21 02:23:00,
2013-02-20 20:28:00,23.0,15.0,30.48,SW,218,11.7,11.7,76,0.00,,,0.00,TxWx,2013-02-21 02:28:00,
2013-02-20 20:33:00,23.0,15.0,30.47,SSW,211,6.9,6.9,76,0.00,,,0.00,TxWx,2013-02-21 02:33:00,
2013-02-20 20:38:00,23.0,15.0,30.47,SSW,204,5.4,5.4,75,0.00,,,0.00,TxWx,2013-02-21 02:38:00,
2013-02-20 20:43:00,23.0,15.0,30.47,SSW,209,5.7,5.7,75,0.00,,,0.00,TxWx,2013-02-21 02:43:00,
2013-02-20 20:48:00,23.1,15.0,30.47,SW,215,6.3,6.3,76,0.00,,,0.00,TxWx,2013-02-21 02:48:00,
2013-02-20 20:53:00,23.2,16.0,30.47,SW,221,4.5,4.5,76,0.00,,,0.00,TxWx,2013-02-21 02:53:00,
2013-02-20 20:58:00,23.3,16.0,30.48,SSW,201,5.4,5.4,76,0.00,,,0.00,TxWx,2013-02-21 02:58:00,
2013-02-20 21:04:00,23.3,16.0,30.47,SSW,194,5.4,5.4,76,0.00,,,0.00,TxWx,2013-02-21 03:04:00,
2013-02-20 21:09:00,23.4,16.0,30.48,SSW,203,5.1,5.1,77,0.00,,,0.00,TxWx,2013-02-21 03:09:00,
2013-02-20 21:14:00,23.4,16.0,30.48,SSW,200,7.5,7.5,77,0.00,,,0.00,TxWx,2013-02-21 03:14:00,
2013-02-20 21:19:00,23.4,16.0,30.48,SSW,200,9.6,10.2,77,0.00,,,0.00,TxWx,2013-02-21 03:19:00,
2013-02-20 21:24:00,23.5,16.0,30.48,SW,215,8.4,9.0,77,0.00,,,0.00,TxWx,2013-02-21 03:24:00,
2013-02-20 21:29:00,23.7,17.0,30.48,SSW,212,3.6,3.6,77,0.00,,,0.00,TxWx,2013-02-21 03:29:00,
2013-02-20 21:34:00,23.6,17.0,30.48,SSW,211,9.3,9.3,76,0.00,,,0.00,TxWx,2013-02-21 03:34:00,
2013-02-20 21:39:00,23.6,17.0,30.48,SSW,208,6.0,6.3,77,0.00,,,0.00,TxWx,2013-02-21 03:39:00,
2013-02-20 21:44:00,23.7,17.0,30.47,SSW,213,5.7,5.7,77,0.00,,,0.00,TxWx,2013-02-21 03:44:00,
2013-02-20 21:49:00,23.7,17.0,30.47,SSW,209,5.1,5.4,77,0.00,,,0.00,TxWx,2013-02-21 03:49:00,
2013-02-20 21:55:00,23.9,17.0,30.47,SW,214,5.4,5.7,77,0.00,,,0.00,TxWx,2013-02-21 03:55:00,
2013-02-20 22:00:00,24.1,17.0,30.47,SSW,213,9.6,9.9,77,0.00,,,0.00,TxWx,2013-02-21 04:00:00,
2013-02-20 22:05:00,24.2,17.0,30.47,SSW,209,6.9,7.2,77,0.00,,,0.00,TxWx,2013-02-21 04:05:00,
2013-02-20 22:10:00,24.3,17.0,30.47,SSW,202,5.1,5.7,77,0.00,,,0.00,TxWx,2013-02-21 04:10:00,
2013-02-20 22:15:00,24.2,17.0,30.47,SSW,204,4.5,4.8,77,0.00,,,0.00,TxWx,2013-02-21 04:15:00,
2013-02-20 22:20:00,24.2,17.0,30.47,SSW,200,4.2,4.2,78,0.00,,,0.00,TxWx,2013-02-21 04:20:00,
2013-02-20 22:25:00,24.2,17.0,30.47,SSW,212,9.3,9.3,78,0.00,,,0.00,TxWx,2013-02-21 04:25:00,
2013-02-20 22:31:00,24.3,17.0,30.47,SW,222,3.0,3.6,78,0.00,,,0.00,TxWx,2013-02-21 04:31:00,
2013-02-20 22:36:00,24.4,17.0,30.46,SW,226,5.7,6.3,78,0.00,,,0.00,TxWx,2013-02-21 04:36:00,
2013-02-20 22:41:00,24.6,18.0,30.47,SSW,203,5.4,5.4,78,0.00,,,0.00,TxWx,2013-02-21 04:41:00,
2013-02-20 22:46:00,24.7,18.0,30.47,SSW,213,5.1,5.1,77,0.00,,,0.00,TxWx,2013-02-21 04:46:00,
2013-02-20 22:52:00,24.9,18.0,30.47,SW,215,5.4,5.4,77,0.00,,,0.00,TxWx,2013-02-21 04:52:00,
2013-02-20 22:57:00,24.9,17.0,30.47,SW,226,4.8,4.8,76,0.00,,,0.00,TxWx,2013-02-21 04:57:00,
2013-02-20 23:00:00,25.0,17.0,30.47,SW,221,9.6,9.6,76,0.00,,,0.00,TxWx,2013-02-21 05:00:00,
2013-02-20 23:05:00,25.0,17.0,30.47,SW,220,6.6,6.6,75,0.00,,,0.00,TxWx,2013-02-21 05:05:00,
2013-02-20 23:10:00,25.1,17.0,30.47,SW,229,3.0,3.3,76,0.00,,,0.00,TxWx,2013-02-21 05:10:00,
2013-02-20 23:15:00,25.1,18.0,30.47,SSW,211,4.2,4.5,77,0.00,,,0.00,TxWx,2013-02-21 05:15:00,
2013-02-20 23:21:00,25.2,18.0,30.47,SW,216,5.7,5.7,77,0.00,,,0.00,TxWx,2013-02-21 05:21:00,
2013-02-20 23:26:00,25.2,18.0,30.47,SSW,199,3.3,3.6,77,0.00,,,0.00,TxWx,2013-02-21 05:26:00,
2013-02-20 23:31:00,25.2,18.0,30.48,SSW,199,4.8,4.8,77,0.00,,,0.00,TxWx,2013-02-21 05:31:00,
2013-02-20 23:36:00,25.2,18.0,30.48,SSW,196,3.3,3.3,77,0.00,,,0.00,TxWx,2013-02-21 05:36:00,
2013-02-20 23:41:00,25.3,18.0,30.47,SSW,204,3.6,4.5,77,0.00,,,0.00,TxWx,2013-02-21 05:41:00,
2013-02-20 23:47:00,25.3,18.0,30.47,SW,214,5.4,6.6,77,0.00,,,0.00,TxWx,2013-02-21 05:47:00,
2013-02-20 23:52:00,25.4,18.0,30.47,SSW,212,4.8,4.8,77,0.00,,,0.00,TxWx,2013-02-21 05:52:00,
2013-02-20 23:58:00,25.5,19.0,30.47,SW,215,4.5,4.8,77,0.00,,,0.00,TxWx,2013-02-21 05:58:00,